N7LK Weather Reports


time (UTC)temp
F
wind
direction
speed
knots
gust
knots
rain 1hr
in
rain 24hr
in
rain mn
in
humidity
%
barometer
mb
20260509222338 104 257 1.7 7.0 0.00 0.00 0.00 9 1005.0
20260509221330 104 266 4.3 11.3 0.00 0.00 0.00 9 1005.2
20260509220336 104 116 3.5 7.8 0.00 0.00 0.00 9 1005.4
20260509215343 103 261 1.7 14.8 0.00 0.00 0.00 8 1005.6
20260509214335 103 269 1.7 8.7 0.00 0.00 0.00 8 1005.7
20260509213344 103 287 4.3 9.6 0.00 0.00 0.00 8 1005.9
20260509212351 103 222 2.6 8.7 0.00 0.00 0.00 9 1006.0
20260509211337 103 173 3.5 8.7 0.00 0.00 0.00 9 1006.2
20260509210405 103 224 4.3 9.6 0.00 0.00 0.00 8 1006.4
20260509205354 102 292 2.6 9.6 0.00 0.00 0.00 10 1006.5
20260509204341 102 179 3.5 7.0 0.00 0.00 0.00 9 1006.7
20260509203330 102 153 1.7 5.2 0.00 0.00 0.00 10 1006.9
20260509202338 101 231 1.7 7.0 0.00 0.00 0.00 11 1006.9
20260509201329 100 312 4.3 8.7 0.00 0.00 0.00 11 1007.2
20260509200336 100 300 3.5 8.7 0.00 0.00 0.00 11 1007.3
20260509195345 100 326 1.7 7.0 0.00 0.00 0.00 11 1007.5
20260509194331 100 255 3.5 7.8 0.00 0.00 0.00 11 1007.6
20260509193343 100 296 0.0 3.5 0.00 0.00 0.00 11 1007.7
20260509192329 99 69 1.7 6.1 0.00 0.00 0.00 12 1007.8
20260509191336 98 20 1.7 3.5 0.00 0.00 0.00 12 1008.1
20260509190326 98 239 1.7 4.3 0.00 0.00 0.00 13 1008.2
20260509185335 98 67 0.9 2.6 0.00 0.00 0.00 12 1008.2
20260509184343 98 250 0.0 2.6 0.00 0.00 0.00 12 1008.4
20260509183329 97 5 0.9 4.3 0.00 0.00 0.00 13 1008.5
20260509182337 97 346 2.6 4.3 0.00 0.00 0.00 13 1008.7
20260509181349 96 340 1.7 3.5 0.00 0.00 0.00 13 1008.8
20260509180335 96 155 1.7 3.5 0.00 0.00 0.00 14 1009.0
20260509175343 96 175 1.7 5.2 0.00 0.00 0.00 14 1009.1
20260509174329 95 101 0.0 2.6 0.00 0.00 0.00 14 1009.1
20260509173400 94 298 0.0 2.6 0.00 0.00 0.00 14 1009.2
20260509172347 93 230 0.0 7.0 0.00 0.00 0.00 15 1009.2
20260509171333 92 173 1.7 4.3 0.00 0.00 0.00 15 1009.2
20260509170339 92 9 0.9 4.3 0.00 0.00 0.00 16 1009.2
20260509165330 91 140 0.9 4.3 0.00 0.00 0.00 18 1009.3
20260509164339 90 59 0.9 5.2 0.00 0.00 0.00 17 1009.3
20260509163326 90 24 1.7 4.3 0.00 0.00 0.00 17 1009.3
20260509162335 90 62 2.6 5.2 0.00 0.00 0.00 17 1009.3
20260509161327 89 101 1.7 4.3 0.00 0.00 0.00 18 1009.3
20260509160335 88 82 1.7 6.1 0.00 0.00 0.00 19 1009.4
20260509155341 87 98 1.7 5.2 0.00 0.00 0.00 19 1009.4
20260509154329 87 46 2.6 6.1 0.00 0.00 0.00 20 1009.3
20260509153340 86 97 1.7 5.2 0.00 0.00 0.00 20 1009.2
20260509152348 85 107 1.7 5.2 0.00 0.00 0.00 20 1009.2
20260509151334 84 88 0.9 5.2 0.00 0.00 0.00 21 1009.1
20260509150342 84 144 2.6 7.0 0.00 0.00 0.00 21 1009.2
20260509145354 83 108 0.0 0.0 0.00 0.00 0.00 23 1009.1
20260509143334 80 94 0.0 0.0 0.00 0.00 0.00 25 1009.1
20260509142326 79 60 0.0 0.0 0.00 0.00 0.00 26 1009.0
20260509141333 78 63 0.0 0.0 0.00 0.00 0.00 26 1009.0
20260509140400 77 82 0.0 0.0 0.00 0.00 0.00 28 1009.0
20260509135405 76 84 0.9 5.2 0.00 0.00 0.00 28 1008.9
20260509134331 75 78 0.0 2.6 0.00 0.00 0.00 29 1008.7
20260509133402 75 76 0.0 0.9 0.00 0.00 0.00 29 1008.6
20260509132406 74 60 0.0 0.9 0.00 0.00 0.00 30 1008.4
20260509131331 73 98 0.0 0.9 0.00 0.00 0.00 30 1008.4
20260509130357 73 70 0.0 0.0 0.00 0.00 0.00 29 1008.2
20260509125343 73 65 0.0 0.0 0.00 0.00 0.00 28 1008.1
20260509124332 74 55 0.0 0.0 0.00 0.00 0.00 29 1007.9
20260509123339 74 55 0.0 0.0 0.00 0.00 0.00 29 1007.8
20260509122326 75 5 0.0 0.0 0.00 0.00 0.00 28 1007.7
20260509121334 75 355 0.0 0.0 0.00 0.00 0.00 27 1007.5
20260509120343 75 286 0.0 0.0 0.00 0.00 0.00 26 1007.4
20260509115331 76 320 0.0 0.0 0.00 0.00 0.00 25 1007.3
20260509114338 76 320 0.0 0.0 0.00 0.00 0.00 25 1007.3
20260509113326 76 320 0.0 0.0 0.00 0.00 0.00 24 1007.3
20260509112337 76 320 0.0 0.0 0.00 0.00 0.00 24 1007.3
20260509111345 77 290 0.0 0.0 0.00 0.00 0.00 24 1007.1
20260509110332 77 281 0.0 0.0 0.00 0.00 0.00 23 1007.1
20260509105339 77 266 0.0 0.0 0.00 0.00 0.00 23 1007.0
20260509104328 77 295 0.0 0.0 0.00 0.00 0.00 22 1007.0
20260509103335 77 286 0.0 0.0 0.00 0.00 0.00 23 1006.9
20260509102342 76 270 0.0 0.0 0.00 0.00 0.00 23 1006.9
20260509101349 76 261 0.0 0.0 0.00 0.00 0.00 23 1007.0
20260509100339 77 257 0.0 0.0 0.00 0.00 0.00 23 1007.0
20260509095347 77 294 0.0 0.0 0.00 0.00 0.00 22 1006.9
20260509094334 77 338 0.0 0.0 0.00 0.00 0.00 22 1007.1
20260509093340 78 338 0.0 0.0 0.00 0.00 0.00 23 1007.1
20260509092347 78 338 0.0 0.0 0.00 0.00 0.00 23 1007.1
20260509091339 78 338 0.0 0.0 0.00 0.00 0.00 23 1007.1
20260509090404 79 338 0.0 0.0 0.00 0.00 0.00 21 1007.1
20260509085331 79 338 0.0 0.0 0.00 0.00 0.00 22 1007.1
20260509084339 80 338 0.0 0.0 0.00 0.00 0.00 22 1007.1
20260509083330 81 338 0.0 0.0 0.00 0.00 0.00 21 1007.0
20260509082357 82 338 0.0 0.0 0.00 0.00 0.00 21 1006.9
20260509081343 83 338 0.0 0.0 0.00 0.00 0.00 20 1006.8
20260509080330 84 338 0.0 0.0 0.00 0.00 0.00 19 1006.8
20260509075340 84 338 0.0 0.0 0.00 0.00 0.00 19 1006.9
20260509074327 85 340 0.0 0.0 0.00 0.00 0.00 18 1006.9
20260509073335 86 355 0.0 1.7 0.00 0.00 0.00 17 1006.8
20260509072343 86 284 0.0 0.9 0.00 0.00 0.00 16 1006.8
20260509071335 87 273 0.0 1.7 0.00 0.00 0.00 16 1006.7
20260509070342 87 259 0.0 4.3 0.00 0.00 0.00 16 1006.7
20260509065330 88 248 1.7 6.1 0.00 0.00 0.00 15 1006.7
20260509064337 88 252 0.9 7.0 0.00 0.00 0.00 15 1006.6
20260509063348 88 252 3.5 7.8 0.00 0.00 0.00 15 1006.6
20260509062334 89 207 0.9 6.1 0.00 0.00 0.00 15 1006.6
20260509061400 89 286 1.7 7.0 0.00 0.00 0.00 15 1006.5
20260509060345 89 207 0.9 7.8 0.00 0.00 0.00 15 1006.6
20260509055356 89 238 0.9 11.3 0.00 0.00 0.00 15 1006.5
20260509054341 89 237 2.6 8.7 0.00 0.00 0.00 15 1006.5
20260509053328 90 196 0.0 6.1 0.00 0.00 0.00 16 1006.5
20260509052336 90 215 0.0 6.1 0.00 0.00 0.00 15 1006.6
20260509051326 90 290 1.7 7.0 0.00 0.00 0.00 15 1006.6
20260509050334 91 238 0.0 5.2 0.00 0.00 0.00 15 1006.5
20260509045341 91 265 0.0 7.0 0.00 0.00 0.00 15 1006.5
20260509044328 91 208 2.6 7.8 0.00 0.00 0.00 15 1006.3
20260509043359 91 265 2.6 7.8 0.00 0.00 0.00 15 1006.2
20260509042343 92 261 1.7 6.1 0.00 0.00 0.00 15 1006.1
20260509041330 92 248 0.9 4.3 0.00 0.00 0.00 15 1006.1
20260509040337 93 221 2.6 7.0 0.00 0.00 0.00 15 1006.0
20260509035405 93 216 1.7 5.2 0.00 0.00 0.00 15 1005.8
20260509034335 94 255 1.7 7.8 0.00 0.00 0.00 15 1005.7
20260509033402 94 298 4.3 9.6 0.00 0.00 0.00 14 1005.6
20260509032329 94 224 1.7 6.1 0.00 0.00 0.00 14 1005.5
20260509031336 95 271 0.0 9.6 0.00 0.00 0.00 14 1005.4
20260509030328 95 271 3.5 8.7 0.00 0.00 0.00 14 1005.3
20260509025335 96 257 0.9 7.0 0.00 0.00 0.00 13 1005.1
20260509024343 96 249 3.5 9.6 0.00 0.00 0.00 13 1004.9
20260509023330 96 249 0.9 6.1 0.00 0.00 0.00 13 1004.8
20260509022401 97 267 3.5 7.8 0.00 0.00 0.00 12 1004.7
20260509021346 97 247 2.6 9.6 0.00 0.00 0.00 12 1004.6
20260509020334 98 281 4.3 9.6 0.00 0.00 0.00 12 1004.6
20260509015340 98 294 1.7 8.7 0.00 0.00 0.00 12 1004.5
20260509014332 99 267 1.7 8.7 0.00 0.00 0.00 11 1004.5
20260509013339 99 175 2.6 8.7 0.00 0.00 0.00 11 1004.5
20260509012406 99 237 5.2 9.6 0.00 0.00 0.00 11 1004.5
20260509011333 100 197 0.9 10.4 0.00 0.00 0.00 11 1004.6
20260509010405 100 265 4.3 11.3 0.00 0.00 0.00 11 1004.6
20260509005331 100 192 0.0 8.7 0.00 0.00 0.00 11 1004.7
20260509004339 100 255 6.1 11.3 0.00 0.00 0.00 11 1004.8
20260509003327 100 278 4.3 8.7 0.00 0.00 0.00 11 1004.8
20260509002338 100 298 4.3 10.4 0.00 0.00 0.00 11 1004.9
20260509001405 101 252 5.2 9.6 0.00 0.00 0.00 11 1005.0
20260509000352 100 228 2.6 11.3 0.00 0.00 0.00 11 1005.0
20260508235338 100 261 2.6 11.3 0.00 0.00 0.00 12 1005.0
20260508234329 100 281 2.6 10.4 0.00 0.00 0.00 12 1005.1
20260508233336 100 240 6.1 13.0 0.00 0.00 0.00 12 1005.4
20260508232343 100 205 5.2 12.2 0.00 0.00 0.00 12 1005.4
20260508231330 100 250 4.3 10.4 0.00 0.00 0.00 13 1005.5
20260508230356 100 269 3.5 9.6 0.00 0.00 0.00 13 1005.6
20260508225407 99 269 7.0 11.3 0.00 0.00 0.00 13 1005.6
20260508224352 100 259 7.0 9.6 0.00 0.00 0.00 13 1005.9
20260508223338 99 289 3.5 10.4 0.00 0.00 0.00 13 1006.1